Total_Precipitation_Accumulation
1.24 1.25 1.76 2.58 2.53 1.85 1.46 1.05 0.61 0.64 0.55 0.33 0.27 0.27 0.47 0.83 1.02 1.22 1.07 0.77 0.47 0.37 0.40 0.63 0.85 0.78 0.71 0.65 0.59 0.58 0.59 0.59 0.51 0.46 0.46 0.39 0.30 0.29 0.30 0.28 0.27 0.27 0.31 0.29 0.29 0.33 0.37 0.43 0.51
1.10 1.71 2.41 2.95 2.25 1.61 1.52 1.11 0.80 0.55 0.35 0.25 0.23 0.22 0.37 0.46 0.39 0.61 1.10 1.05 0.47 0.41 0.43 0.53 0.85 0.84 0.80 0.73 0.66 0.65 0.63 0.59 0.53 0.46 0.43 0.37 0.32 0.31 0.33 0.29 0.28 0.28 0.30 0.33 0.34 0.34 0.38 0.43 0.50
1.42 2.21 2.87 2.63 1.75 1.50 1.53 1.08 0.75 0.36 0.23 0.26 0.27 0.25 0.34 0.49 0.51 0.77 1.02 0.73 0.43 0.40 0.46 0.63 0.90 0.85 0.85 0.79 0.78 0.79 0.72 0.67 0.59 0.51 0.48 0.44 0.40 0.34 0.33 0.31 0.30 0.31 0.33 0.34 0.36 0.37 0.41 0.45 0.46
1.67 2.34 2.41 1.90 1.48 1.21 1.00 0.83 0.50 0.35 0.26 0.18 0.19 0.28 0.28 0.44 0.57 0.74 0.67 0.47 0.42 0.44 0.46 0.63 0.84 0.79 0.81 0.81 0.83 0.84 0.73 0.66 0.59 0.52 0.51 0.50 0.46 0.40 0.38 0.38 0.42 0.40 0.41 0.40 0.41 0.42 0.46 0.48 0.47
1.95 2.25 1.99 1.51 1.42 1.09 0.79 0.63 0.43 0.49 0.41 0.25 0.20 0.30 0.39 0.50 0.54 0.61 0.64 0.52 0.50 0.51 0.45 0.50 0.69 0.72 0.77 0.75 0.70 0.77 0.74 0.70 0.60 0.52 0.49 0.49 0.46 0.46 0.46 0.49 0.51 0.52 0.52 0.49 0.49 0.49 0.47 0.48 0.52
2.06 1.94 1.69 1.46 1.51 1.24 1.03 0.72 0.52 0.56 0.44 0.27 0.22 0.38 0.47 0.57 0.65 0.65 0.66 0.68 0.64 0.62 0.52 0.46 0.57 0.66 0.69 0.69 0.73 0.85 0.84 0.76 0.61 0.51 0.51 0.51 0.52 0.51 0.51 0.52 0.52 0.58 0.64 0.63 0.57 0.55 0.48 0.48 0.54
2.23 1.90 1.49 1.18 1.35 1.58 1.20 0.83 0.70 0.61 0.50 0.37 0.25 0.43 0.51 0.54 0.58 0.62 0.69 0.78 0.89 0.89 0.75 0.61 0.59 0.63 0.74 0.80 0.84 0.96 0.99 0.91 0.73 0.59 0.59 0.59 0.54 0.50 0.50 0.54 0.56 0.58 0.62 0.64 0.62 0.60 0.55 0.53 0.54
1.92 1.77 1.36 1.27 1.39 1.65 1.22 0.84 0.66 0.57 0.51 0.34 0.28 0.46 0.66 0.54 0.54 0.64 0.68 0.80 0.88 0.93 0.88 0.80 0.74 0.75 0.82 0.88 1.02 1.12 1.22 1.32 1.07 0.79 0.70 0.65 0.55 0.50 0.52 0.54 0.56 0.60 0.69 0.69 0.67 0.67 0.62 0.64 0.60
1.86 1.94 1.67 1.74 1.65 1.27 0.91 0.85 0.60 0.44 0.46 0.42 0.32 0.30 0.39 0.44 0.46 0.57 0.64 0.68 0.67 0.68 0.72 0.77 0.80 0.86 0.87 0.82 0.89 1.12 1.29 1.47 1.20 0.83 0.85 0.77 0.55 0.56 0.60 0.60 0.72 0.77 0.81 0.82 0.82 0.83 0.81 0.79 0.71
1.91 1.77 1.51 1.41 1.22 1.00 0.87 0.77 0.57 0.55 0.61 0.54 0.43 0.36 0.38 0.42 0.48 0.54 0.56 0.58 0.55 0.55 0.52 0.54 0.57 0.66 0.73 0.72 0.93 1.18 1.22 1.34 1.09 0.92 0.95 0.92 0.97 0.91 0.70 0.69 0.88 0.98 1.03 0.98 0.96 0.99 0.92 0.80 0.63
1.48 1.42 1.09 0.87 0.68 0.65 0.65 0.57 0.44 0.52 0.64 0.47 0.38 0.38 0.41 0.46 0.46 0.47 0.48 0.47 0.44 0.43 0.40 0.39 0.41 0.44 0.53 0.74 0.98 1.20 1.25 1.29 1.33 1.36 1.22 1.20 1.16 0.96 0.79 0.76 0.80 0.87 0.95 0.90 0.99 0.99 0.84 0.73 0.61
1.33 1.11 0.89 0.79 0.59 0.53 0.52 0.44 0.46 0.43 0.45 0.34 0.28 0.31 0.40 0.47 0.44 0.39 0.43 0.47 0.48 0.46 0.44 0.38 0.30 0.31 0.39 0.53 0.75 1.03 1.10 1.16 1.24 1.24 1.04 1.13 1.13 0.95 0.89 0.97 1.00 0.97 0.95 1.07 1.11 1.06 0.99 0.83 0.65
1.27 1.03 0.78 0.56 0.49 0.45 0.45 0.46 0.39 0.32 0.29 0.27 0.28 0.36 0.47 0.51 0.44 0.35 0.35 0.40 0.46 0.54 0.61 0.59 0.43 0.37 0.39 0.45 0.50 0.64 0.74 0.85 1.13 1.21 0.95 0.93 0.95 0.99 1.02 0.93 1.07 1.13 1.13 1.13 1.11 1.01 0.95 0.92 0.80
1.11 0.84 0.63 0.50 0.47 0.44 0.46 0.44 0.35 0.37 0.32 0.28 0.31 0.39 0.47 0.52 0.49 0.43 0.39 0.36 0.35 0.38 0.49 0.57 0.55 0.54 0.52 0.45 0.40 0.40 0.46 0.59 0.74 0.76 0.72 0.75 0.78 0.88 1.05 0.98 0.97 1.04 1.22 1.28 1.21 1.10 1.10 1.06 0.88
0.73 0.68 0.67 0.58 0.52 0.52 0.55 0.58 0.38 0.33 0.31 0.27 0.25 0.27 0.31 0.35 0.39 0.41 0.36 0.29 0.28 0.28 0.33 0.42 0.50 0.56 0.58 0.59 0.58 0.48 0.47 0.54 0.56 0.56 0.62 0.69 0.69 0.82 0.99 0.95 0.86 0.83 0.99 1.16 1.28 1.30 1.23 1.08 0.97
0.80 0.74 0.94 0.71 0.64 0.58 0.63 0.62 0.33 0.31 0.27 0.23 0.22 0.20 0.21 0.21 0.23 0.28 0.31 0.30 0.27 0.26 0.25 0.31 0.36 0.43 0.53 0.62 0.69 0.66 0.62 0.58 0.52 0.49 0.47 0.50 0.52 0.61 0.80 0.88 0.79 0.78 0.94 1.14 1.30 1.39 1.41 1.27 1.20
0.94 0.86 0.79 0.71 0.58 0.50 0.44 0.41 0.30 0.26 0.22 0.18 0.15 0.14 0.13 0.15 0.15 0.17 0.20 0.22 0.25 0.26 0.23 0.24 0.28 0.33 0.40 0.51 0.58 0.58 0.57 0.54 0.52 0.52 0.41 0.39 0.41 0.53 0.73 0.91 0.94 0.95 1.04 1.15 1.20 1.37 1.42 1.45 1.34
0.68 0.57 0.54 0.47 0.41 0.36 0.29 0.25 0.24 0.20 0.16 0.13 0.10 0.11 0.10 0.08 0.08 0.12 0.14 0.17 0.24 0.25 0.24 0.24 0.26 0.27 0.31 0.36 0.43 0.48 0.46 0.44 0.50 0.49 0.47 0.51 0.58 0.65 0.84 1.06 1.15 1.26 1.28 1.30 1.44 1.70 1.68 1.51 1.46
0.52 0.40 0.33 0.26 0.23 0.21 0.19 0.19 0.21 0.17 0.15 0.12 0.10 0.08 0.08 0.07 0.08 0.06 0.06 0.08 0.15 0.19 0.18 0.19 0.24 0.27 0.25 0.24 0.29 0.34 0.35 0.44 0.51 0.59 0.64 0.69 0.72 0.79 1.00 1.21 1.44 1.57 1.44 1.42 1.59 1.83 1.97 1.78 1.62
0.52 0.43 0.31 0.28 0.21 0.16 0.16 0.18 0.19 0.16 0.13 0.11 0.09 0.08 0.07 0.07 0.06 0.05 0.04 0.03 0.04 0.06 0.09 0.13 0.15 0.18 0.18 0.18 0.23 0.32 0.39 0.45 0.58 0.74 0.85 0.87 0.85 0.90 0.95 1.15 1.35 1.42 1.46 1.48 1.56 1.73 2.02 1.94 1.75
0.40 0.33 0.27 0.27 0.22 0.19 0.21 0.22 0.18 0.18 0.14 0.10 0.09 0.10 0.09 0.08 0.06 0.05 0.04 0.05 0.04 0.04 0.04 0.07 0.12 0.16 0.16 0.23 0.41 0.68 0.92 1.01 1.02 1.04 1.19 1.28 1.24 1.19 1.16 1.19 1.32 1.40 1.53 1.54 1.57 1.61 1.79 1.90 1.84
0.40 0.27 0.22 0.24 0.25 0.23 0.19 0.19 0.14 0.16 0.16 0.14 0.12 0.12 0.12 0.12 0.09 0.06 0.05 0.07 0.04 0.04 0.05 0.06 0.11 0.16 0.20 0.36 0.68 1.07 1.40 1.48 1.49 1.61 1.65 1.71 1.63 1.50 1.47 1.48 1.56 1.50 1.49 1.46 1.47 1.47 1.61 1.88 1.93
0.40 0.31 0.30 0.29 0.25 0.20 0.11 0.11 0.10 0.14 0.18 0.21 0.21 0.20 0.20 0.17 0.14 0.10 0.08 0.07 0.09 0.11 0.13 0.15 0.21 0.34 0.51 0.66 0.83 1.13 1.32 1.44 1.58 1.74 1.88 1.99 2.11 2.08 2.00 1.92 1.77 1.59 1.51 1.51 1.54 1.54 1.60 1.69 1.77
0.30 0.34 0.40 0.34 0.29 0.26 0.10 0.09 0.13 0.19 0.23 0.26 0.26 0.28 0.25 0.20 0.14 0.12 0.11 0.12 0.17 0.25 0.28 0.32 0.41 0.51 0.58 0.70 0.84 0.98 1.07 1.23 1.43 1.58 1.75 1.88 2.00 2.03 1.97 1.84 1.61 1.44 1.38 1.44 1.55 1.57 1.60 1.59 1.63
0.29 0.34 0.44 0.44 0.43 0.31 0.10 0.10 0.17 0.18 0.18 0.21 0.22 0.20 0.16 0.16 0.16 0.15 0.14 0.20 0.25 0.34 0.38 0.45 0.53 0.63 0.65 0.73 0.83 0.91 0.97 1.10 1.27 1.32 1.36 1.38 1.38 1.42 1.45 1.45 1.41 1.35 1.30 1.37 1.54 1.62 1.65 1.65 1.61
0.22 0.25 0.38 0.45 0.37 0.24 0.10 0.15 0.24 0.16 0.11 0.09 0.10 0.12 0.13 0.18 0.21 0.20 0.20 0.28 0.34 0.41 0.52 0.60 0.68 0.70 0.72 0.80 0.89 0.90 0.99 1.11 1.21 1.15 1.10 1.12 1.16 1.24 1.25 1.32 1.32 1.31 1.32 1.33 1.40 1.50 1.62 1.64 1.58
0.17 0.18 0.20 0.21 0.15 0.14 0.11 0.17 0.16 0.07 0.05 0.05 0.10 0.15 0.20 0.27 0.30 0.31 0.33 0.38 0.41 0.50 0.61 0.68 0.73 0.76 0.83 0.86 0.95 1.09 1.13 1.13 1.11 1.00 0.95 0.96 0.92 0.93 1.04 1.14 1.20 1.16 1.17 1.21 1.30 1.43 1.49 1.57 1.64
0.13 0.15 0.17 0.17 0.15 0.16 0.14 0.16 0.13 0.09 0.10 0.13 0.17 0.24 0.35 0.44 0.45 0.47 0.53 0.56 0.56 0.57 0.65 0.73 0.80 0.87 0.90 0.92 1.03 1.20 1.14 0.92 0.76 0.66 0.70 0.74 0.78 0.82 0.89 0.86 0.82 0.81 0.86 0.89 0.99 1.16 1.25 1.29 1.37
0.13 0.12 0.11 0.12 0.11 0.20 0.33 0.44 0.47 0.45 0.38 0.42 0.43 0.49 0.63 0.68 0.69 0.69 0.70 0.72 0.66 0.67 0.73 0.78 0.83 0.94 0.97 0.93 1.03 1.06 0.85 0.61 0.49 0.47 0.45 0.44 0.47 0.52 0.60 0.55 0.52 0.58 0.62 0.59 0.68 0.78 0.89 0.98 1.03
0.12 0.10 0.08 0.11 0.12 0.19 0.35 0.54 0.65 0.70 0.68 0.79 0.85 0.96 0.89 0.83 0.83 0.77 0.70 0.68 0.57 0.58 0.67 0.75 0.84 0.90 0.84 0.80 0.79 0.65 0.47 0.37 0.34 0.30 0.25 0.22 0.22 0.22 0.29 0.32 0.32 0.40 0.51 0.52 0.58 0.63 0.65 0.71 0.75